[Iaude] MPEC G189: 2024 GE5 [a=1.16,e=0.13,i=13.9,H=26.2]

mpec at cfa.harvard.edu mpec at cfa.harvard.edu
Sat Apr 13 10:54:50 EDT 2024


M.P.E.C. 2024-G189                               Issued 2024 April 13, 14:53 UT

     The Minor Planet Electronic Circulars contain information on unusual
         minor planets, routine data on comets and natural satellites,
         and occasional editorial announcements.  They are published
    on behalf of Division F of the International Astronomical Union by the
          Minor Planet Center, Smithsonian Astrophysical Observatory,
                          Cambridge, MA 02138, U.S.A.
			  
             Prepared using the Tamkin Foundation Computer Network

                              MPC at CFA.HARVARD.EDU
            URL https://www.minorplanetcenter.net/    ISSN 1523-6714

                                    2024 GE5                                    


Observations:
     K24G05E*1C2024 04 12.34616213 31 38.449+01 09 31.97         20.46GVEG189G96
     K24G05E 1C2024 04 12.35132613 31 39.504+01 10 37.56         20.93GVEG189G96
     K24G05E 1C2024 04 12.35651413 31 40.606+01 11 44.16         20.57GVEG189G96
     K24G05E 1C2024 04 12.36167513 31 41.660+01 12 49.79         20.65GVEG189G96
     K24G05E  C2024 04 12.38954513 31 47.149+01 18 41.04         20.7 GVEG189H01
     K24G05E  C2024 04 12.39245913 31 47.778+01 19 18.35         20.6 GVEG189H01
     K24G05E  C2024 04 12.40312213 31 50.070+01 21 33.65         20.5 GVEG189H01
     K24G05E  C2024 04 12.41132813 31 51.846+01 23 17.70         20.4 GVEG189H01
     K24G05E KC2024 04 12.44104913 31 58.645+01 29 37.75         20.94GVEG189I52
     K24G05E KC2024 04 12.44240913 31 58.969+01 29 55.03         20.73GVEG189I52
     K24G05E KC2024 04 12.44376213 31 59.272+01 30 12.13         20.77GVEG189I52
     K24G05E KC2024 04 12.44511013 31 59.552+01 30 29.45         20.73GVEG189I52
     K24G05E 1C2024 04 12.92545 13 34 08.90 +03 09 34.4          20.9 VXEG189033
     K24G05E 1C2024 04 12.92672 13 34 09.19 +03 09 48.7          21.1 VXEG189033
     K24G05E 1C2024 04 12.92800 13 34 09.45 +03 10 04.7          20.7 VXEG189033
     K24G05E 1C2024 04 12.92935 13 34 09.74 +03 10 21.5          20.7 VXEG189033
     K24G05E KB2024 04 12.93825113 34 13.12 +03 12 21.4          20.1 GXEG189I93
     K24G05E KB2024 04 12.94569213 34 14.70 +03 13 52.6          20.6 GXEG189I93
     K24G05E KB2024 04 12.95296113 34 16.17 +03 15 21.0          20.4 GXEG189I93
     K24G05E KB2024 04 13.01833213 34 29.74 +03 28 39.5          20.5 GXEG189958
     K24G05E KB2024 04 13.02467813 34 31.00 +03 29 56.0          20.5 GXEG189958
     K24G05E KB2024 04 13.03092113 34 32.27 +03 31 10.7          20.4 GXEG189958
     K24G05E KC2024 04 13.18322213 35 13.69 +04 01 56.3          21.3 GVEG189H21
     K24G05E KC2024 04 13.18602113 35 14.23 +04 02 29.9          21.4 GVEG189H21
     K24G05E KC2024 04 13.18881913 35 14.82 +04 03 03.1          21.4 GVEG189H21
     K24G05E KC2024 04 13.47206413 36 13.930+04 59 10.20               VEG189V06
     K24G05E KC2024 04 13.47324813 36 14.160+04 59 23.90         20.80GVEG189V06
     K24G05E KC2024 04 13.47443213 36 14.440+04 59 37.70         20.82GVEG189V06
     K24G05E KC2024 04 13.47561713 36 14.700+04 59 51.70         20.96GVEG189V06

Observer details:
033 Karl Schwarzschild Observatory, Tautenburg.  Observers S. Melnikov, C.
    Hogner, F. Ludwig, M. Hartmann, B. Stecklum.  Measurer B. Stecklum.
    1.34-m f/3 Schmidt + CCD.
958 Observatoire de Dax.  Observer P. Dupouy.  0.50-m f/4.5 Reflector + CMO.
G96 Mt. Lemmon Survey.  Observer H. Groeller.  Measurers T. Beuden, V. F.
    Carvajal, D. Fay, J. B. Fazekas, D. C. Fuls, A. R. Gibbs, A. D. Grauer, H.
    Groeller, J. K. Hogan, R. A. Kowalski, S. M. Larson, G. J. Leonard, D.
    Rankin, R. L. Seaman, F. C. Shelly, K. W. Wierzchos.  1.5-m reflector +
    10K CCD.
H01 Magdalena Ridge Observatory, Socorro.  Observers W. H. Ryan, E. V. Ryan.
    Measurer W. H. Ryan.  2.4-m f/8.9 Ritchey-Chretien + CCD.
H21 Astronomical Research Observatory, Westfield.  Observer R. Holmes.
    Measurers T. Linder, R. Holmes, L. Horn.  0.76-m f/3.0 astrograph + CCD.
I52 Steward Observatory, Mt. Lemmon Station.  Observers V. F. Carvajal, D.
    Rankin.  Measurers T. Beuden, V. F. Carvajal, D. Fay, J. B. Fazekas, D. C.
    Fuls, A. R. Gibbs, A. D. Grauer, H. Groeller, J. K. Hogan, R. A. Kowalski,
    S. M. Larson, G. J. Leonard, D. Rankin, R. L. Seaman, F. C. Shelly, K. W.
    Wierzchos.  1.0-m prime focus + CCD.
I93 St Pardon de Conques.  Observer F. Losse.  0.40-m f/3.7 reflector + CCD.
V06 Catalina Sky Survey-Kuiper.  Observers V. F. Carvajal, D. Rankin.
    Measurers T. Beuden, V. F. Carvajal, D. Fay, J. B. Fazekas, D. C. Fuls, A.
    R. Gibbs, A. D. Grauer, H. Groeller, J. K. Hogan, R. A. Kowalski, S. M.
    Larson, G. J. Leonard, D. Rankin, R. L. Seaman, F. C. Shelly, K. W.
    Wierzchos.  1.55-m reflector + 1K CCD.

Orbital elements:
2024 GE5                                                 Earth MOID = 0.0530 AU
Epoch 2024 Mar. 31.0 TT = JDT 2460400.5                 Veres                   
M  33.76579              (2000.0)            P               Q                  
n   0.79212347     Peri.  307.69621     -0.83917353     -0.53753676             
a   1.1568422      Node   200.20434     +0.54309497     -0.82015482             
e   0.1255536      Incl.   13.85712     +0.02890723     -0.19595997             
P   1.24           H   26.24          G   0.15           U   7                  
Residuals in seconds of arc
240412 G96  0.1+  0.1+    240412 I52  0.2+  0.2-    240413 958  0.0   0.3-
240412 G96  0.2-  0.2-    240412 I52  0.1-  0.1+    240413 958  0.0   1.3-
240412 G96  0.2+  0.3+    240412 033  0.3+  0.1+    240413 H21  0.1+  0.3+
240412 G96  0.2-  0.1+    240412 033  0.6+  1.2-    240413 H21  0.3-  0.2+
240412 H01  0.0   0.0     240412 033  0.5+  0.8-    240413 H21  0.1+  0.1-
240412 H01  0.1+  0.2+    240412 033  0.5+  0.5-    240413 V06  0.0   0.0
240412 H01  0.0   0.1+    240412 I93  0.1+  0.5-    240413 V06  0.3-  0.1-
240412 H01  0.1-  0.1-    240412 I93  0.4+  0.3-    240413 V06  0.1+  0.1-
240412 I52  0.2-  0.2-    240412 I93  0.2-  0.7-    240413 V06  0.2+  0.1+
240412 I52  0.2+  0.2-    240413 958  0.5+  0.2+

Ephemeris:
2024 GE5                 a,e,i = 1.16, 0.13, 14                  q = 1.0116
Date    TT    R. A. (2000) Decl.     Delta      r    Elong.  Phase     V
2024 03 14    08 52 02.5 -70 46 42   0.1123  1.0233   101.9    72.0    24.1
...
2024 03 29    11 48 48.3 -54 05 37   0.06487 1.0400   128.5    48.7    22.2
...
2024 04 06    12 57 29.1 -25 04 19   0.05338 1.0514   161.3    17.7    20.9
...
2024 04 12    13 30 09.3 -00 03 51   0.05915 1.0609   171.2     8.3    20.8
2024 04 13    13 34 25.4 +03 26 19   0.06126 1.0626   167.4    11.9    21.0
2024 04 14    13 38 24.9 +06 41 00   0.06364 1.0642   163.8    15.3    21.2
...
2024 04 20    13 57 35.9 +21 06 06   0.08203 1.0746   147.4    30.3    22.3
...
2024 04 28    14 14 18.1 +30 56 41   0.1128  1.0893   134.9    40.9    23.3
...
2024 05 13    14 32 13.0 +36 46 02   0.1771  1.1185   123.7    48.7    24.5

M. P. C. Staff               (C) Copyright 2024 MPC           M.P.E.C. 2024-G189





More information about the Iaude mailing list